When you browse on this site, cookies collect data to enhance your experience and personalize the content and advertising you see.
Visit our Privacy Policy to learn more. By continuing to use the site, you agree to this use of cookies and data.
  • In Österreich
  • Länderverzeichnis
  • Für 7 Tage
  • Wassertemperatur
  • Wetterkarte
  • News
  • Widgets
  • user-avatar
    Anmelden

    Stündliche Wetter Elbasan

    Heute, 6 Juni, Samstag

    Zeit Temperatur Niederschläge Wind Luftdruck Luftfeuchtigkeit
    00:00 +19°C° 0 mm 3 m/S 727 mmHg 71%
    01:00 +19°C° 0 mm 3 m/S 727 mmHg 72%
    02:00 +19°C° 0 mm 3 m/S 727 mmHg 73%
    03:00 +19°C° 0 mm 3 m/S 726 mmHg 73%
    04:00 +18°C° 0 mm 2 m/S 726 mmHg 74%
    05:00 +19°C° 0.1 mm 2 m/S 727 mmHg 71%
    06:00 +20°C° 0.1 mm 2 m/S 727 mmHg 69%
    07:00 +21°C° 0.1 mm 3 m/S 728 mmHg 66%
    08:00 +21°C° 0.5 mm 3 m/S 728 mmHg 66%
    09:00 +21°C° 0.5 mm 3 m/S 728 mmHg 65%
    10:00 +21°C° 0.5 mm 3 m/S 729 mmHg 65%
    11:00 +23°C° 0.8 mm 2 m/S 729 mmHg 65%
    12:00 +23°C° 0.8 mm 2 m/S 729 mmHg 66%
    13:00 +23°C° 0.8 mm 2 m/S 729 mmHg 66%
    14:00 +21°C° 0.8 mm 2 m/S 729 mmHg 70%
    15:00 +20°C° 0.8 mm 2 m/S 729 mmHg 74%
    16:00 +20°C° 0.8 mm 2 m/S 729 mmHg 78%
    17:00 +19°C° 0.3 mm 2 m/S 729 mmHg 82%
    18:00 +19°C° 0.3 mm 1 m/S 729 mmHg 86%
    19:00 +18°C° 0.3 mm 1 m/S 729 mmHg 90%
    20:00 +18°C° 0 mm 1 m/S 730 mmHg 91%
    21:00 +16°C° 0 mm 1 m/S 730 mmHg 92%
    22:00 +15°C° 0 mm 0 m/S 731 mmHg 93%
    23:00 +15°C° 0 mm 0 m/S 730 mmHg 93%

    Morgen, 7 Juni, Sonntag

    Zeit Temperatur Niederschläge Wind Luftdruck Luftfeuchtigkeit
    00:00 +14°C° 0 mm 0 m/S 730 mmHg 93%
    01:00 +14°C° 0 mm 0 m/S 730 mmHg 93%
    02:00 +14°C° 0 mm 0 m/S 730 mmHg 92%
    03:00 +15°C° 0 mm 1 m/S 730 mmHg 92%
    04:00 +14°C° 0 mm 1 m/S 730 mmHg 91%
    05:00 +16°C° 0 mm 1 m/S 731 mmHg 86%
    06:00 +18°C° 0 mm 1 m/S 731 mmHg 80%
    07:00 +20°C° 0 mm 1 m/S 731 mmHg 75%
    08:00 +21°C° 0 mm 1 m/S 731 mmHg 69%
    09:00 +23°C° 0 mm 1 m/S 731 mmHg 63%
    10:00 +24°C° 0 mm 2 m/S 732 mmHg 57%
    11:00 +25°C° 0 mm 2 m/S 731 mmHg 57%
    12:00 +25°C° 0 mm 3 m/S 731 mmHg 56%
    13:00 +26°C° 0 mm 3 m/S 731 mmHg 56%
    14:00 +25°C° 0.1 mm 3 m/S 731 mmHg 58%
    15:00 +25°C° 0.1 mm 3 m/S 731 mmHg 60%
    16:00 +25°C° 0.1 mm 3 m/S 731 mmHg 63%
    17:00 +23°C° 0 mm 2 m/S 731 mmHg 70%
    18:00 +20°C° 0 mm 2 m/S 731 mmHg 77%
    19:00 +20°C° 0 mm 1 m/S 731 mmHg 85%
    20:00 +19°C° 0 mm 1 m/S 732 mmHg 85%
    21:00 +18°C° 0 mm 1 m/S 732 mmHg 85%
    22:00 +18°C° 0 mm 1 m/S 732 mmHg 85%
    23:00 +18°C° 0 mm 1 m/S 732 mmHg 85%

    übermorgen, 8 Juni, Montag

    Zeit Temperatur Niederschläge Wind Luftdruck Luftfeuchtigkeit
    00:00 +16°C° 0 mm 1 m/S 732 mmHg 84%
    01:00 +16°C° 0 mm 1 m/S 731 mmHg 83%
    02:00 +16°C° 0 mm 1 m/S 731 mmHg 82%
    03:00 +16°C° 0 mm 1 m/S 731 mmHg 81%
    04:00 +16°C° 0 mm 1 m/S 731 mmHg 80%
    05:00 +19°C° 0 mm 1 m/S 731 mmHg 76%
    06:00 +21°C° 0 mm 1 m/S 732 mmHg 71%
    07:00 +22°C° 0 mm 1 m/S 732 mmHg 67%
    08:00 +23°C° 0.1 mm 1 m/S 732 mmHg 66%
    09:00 +24°C° 0.1 mm 1 m/S 732 mmHg 65%
    10:00 +24°C° 0.1 mm 1 m/S 732 mmHg 64%
    11:00 +25°C° 0.1 mm 2 m/S 732 mmHg 59%
    12:00 +27°C° 0.1 mm 2 m/S 732 mmHg 54%
    13:00 +28°C° 0.1 mm 3 m/S 731 mmHg 50%
    14:00 +27°C° 0.3 mm 3 m/S 731 mmHg 54%
    15:00 +26°C° 0.3 mm 3 m/S 731 mmHg 59%
    16:00 +25°C° 0.3 mm 3 m/S 731 mmHg 63%
    17:00 +24°C° 0.2 mm 2 m/S 731 mmHg 69%
    18:00 +22°C° 0.2 mm 1 m/S 731 mmHg 75%
    19:00 +21°C° 0.2 mm 1 m/S 731 mmHg 81%
    20:00 +20°C° 0 mm 1 m/S 732 mmHg 80%
    21:00 +20°C° 0 mm 1 m/S 732 mmHg 79%
    22:00 +19°C° 0 mm 1 m/S 732 mmHg 79%
    23:00 +19°C° 0 mm 1 m/S 732 mmHg 78%

    9 Juni, Dienstag

    Zeit Temperatur Niederschläge Wind Luftdruck Luftfeuchtigkeit
    00:00 +19°C° 0 mm 1 m/S 732 mmHg 77%
    01:00 +19°C° 0 mm 1 m/S 732 mmHg 76%
    02:00 +19°C° 0 mm 1 m/S 732 mmHg 76%
    03:00 +19°C° 0 mm 1 m/S 731 mmHg 76%
    04:00 +18°C° 0 mm 1 m/S 731 mmHg 77%
    05:00 +20°C° 0 mm 1 m/S 732 mmHg 72%
    06:00 +22°C° 0 mm 1 m/S 732 mmHg 67%
    07:00 +22°C° 0 mm 0 m/S 732 mmHg 63%
    08:00 +25°C° 0 mm 1 m/S 732 mmHg 58%
    09:00 +27°C° 0 mm 1 m/S 732 mmHg 53%
    10:00 +28°C° 0 mm 1 m/S 733 mmHg 48%
    11:00 +29°C° 0 mm 2 m/S 732 mmHg 47%
    12:00 +29°C° 0 mm 2 m/S 732 mmHg 47%
    13:00 +29°C° 0 mm 2 m/S 732 mmHg 47%
    14:00 +29°C° 0.1 mm 2 m/S 732 mmHg 49%
    15:00 +29°C° 0.1 mm 2 m/S 731 mmHg 51%
    16:00 +28°C° 0.1 mm 1 m/S 731 mmHg 52%
    17:00 +26°C° 0.7 mm 1 m/S 731 mmHg 62%
    18:00 +24°C° 0.7 mm 1 m/S 731 mmHg 72%
    19:00 +21°C° 0.7 mm 1 m/S 731 mmHg 81%
    20:00 +21°C° 0.2 mm 1 m/S 731 mmHg 82%
    21:00 +20°C° 0.2 mm 1 m/S 732 mmHg 83%
    22:00 +20°C° 0.2 mm 1 m/S 732 mmHg 84%
    23:00 +20°C° 0 mm 1 m/S 732 mmHg 82%

    10 Juni, Mittwoch

    Zeit Temperatur Niederschläge Wind Luftdruck Luftfeuchtigkeit
    00:00 +19°C° 0 mm 1 m/S 732 mmHg 80%
    01:00 +19°C° 0 mm 1 m/S 731 mmHg 79%
    02:00 +19°C° 0 mm 1 m/S 731 mmHg 78%
    03:00 +19°C° 0 mm 1 m/S 731 mmHg 78%
    04:00 +19°C° 0 mm 1 m/S 731 mmHg 77%
    05:00 +21°C° 0 mm 1 m/S 731 mmHg 73%
    06:00 +22°C° 0 mm 1 m/S 732 mmHg 68%
    07:00 +22°C° 0 mm 0 m/S 732 mmHg 64%
    08:00 +25°C° 0.1 mm 1 m/S 732 mmHg 60%
    09:00 +26°C° 0.1 mm 1 m/S 732 mmHg 56%
    10:00 +27°C° 0.1 mm 2 m/S 732 mmHg 52%
    11:00 +28°C° 0.4 mm 2 m/S 732 mmHg 52%
    12:00 +28°C° 0.4 mm 3 m/S 732 mmHg 51%
    13:00 +28°C° 0.4 mm 3 m/S 732 mmHg 51%
    14:00 +28°C° 0.3 mm 3 m/S 732 mmHg 53%
    15:00 +27°C° 0.3 mm 3 m/S 732 mmHg 56%
    16:00 +26°C° 0.3 mm 3 m/S 731 mmHg 58%
    17:00 +25°C° 0.2 mm 2 m/S 731 mmHg 65%
    18:00 +23°C° 0.2 mm 2 m/S 731 mmHg 72%
    19:00 +21°C° 0.2 mm 1 m/S 731 mmHg 79%
    20:00 +20°C° 0 mm 1 m/S 732 mmHg 79%
    21:00 +20°C° 0 mm 1 m/S 732 mmHg 80%
    22:00 +19°C° 0 mm 1 m/S 732 mmHg 80%
    23:00 +19°C° 0 mm 1 m/S 732 mmHg 80%

    11 Juni, Donnerstag

    Zeit Temperatur Niederschläge Wind Luftdruck Luftfeuchtigkeit
    00:00 +18°C° 0 mm 1 m/S 732 mmHg 79%
    01:00 +16°C° 0 mm 0 m/S 732 mmHg 79%
    02:00 +16°C° 0 mm 0 m/S 731 mmHg 79%
    03:00 +16°C° 0 mm 1 m/S 731 mmHg 79%
    04:00 +16°C° 0 mm 1 m/S 731 mmHg 80%
    05:00 +19°C° 0 mm 1 m/S 731 mmHg 75%
    06:00 +20°C° 0 mm 1 m/S 731 mmHg 70%
    07:00 +22°C° 0 mm 1 m/S 731 mmHg 65%
    08:00 +23°C° 0 mm 1 m/S 732 mmHg 61%
    09:00 +24°C° 0 mm 2 m/S 732 mmHg 57%
    10:00 +25°C° 0 mm 2 m/S 732 mmHg 54%
    11:00 +25°C° 0.2 mm 3 m/S 731 mmHg 54%
    12:00 +25°C° 0.2 mm 3 m/S 731 mmHg 55%
    13:00 +26°C° 0.2 mm 4 m/S 731 mmHg 56%
    14:00 +25°C° 0.1 mm 4 m/S 731 mmHg 56%
    15:00 +25°C° 0.1 mm 4 m/S 730 mmHg 56%
    16:00 +25°C° 0.1 mm 3 m/S 730 mmHg 55%
    17:00 +22°C° 0 mm 3 m/S 730 mmHg 60%
    18:00 +21°C° 0 mm 2 m/S 730 mmHg 64%
    19:00 +20°C° 0 mm 1 m/S 730 mmHg 69%
    20:00 +19°C° 0 mm 1 m/S 730 mmHg 69%
    21:00 +19°C° 0 mm 1 m/S 730 mmHg 69%
    22:00 +18°C° 0 mm 1 m/S 730 mmHg 69%
    23:00 +18°C° 0 mm 1 m/S 730 mmHg 68%
    Mehr zeigen